{"data":{"norad_id":58946,"intl_designator":"2024-027R","name":"STARLINK-31331","alt_names":[],"object_type":"PAYLOAD","status":"ACTIVE","operator":null,"country":"US","launch_date":"2024-02-10","launch_site_code":"AFWTR","launch_vehicle":null,"mission":null,"orbit_class":"UNKNOWN","rcs_meters":null,"size_class":null,"mass_kg":null,"dimensions":null,"purposes":["comms"],"wikipedia_slug":null,"has_3d_model":false,"image_url":null,"decayed_at":null,"tle_current":{"epoch":"2026-09-20T08:25:40.646496Z","epoch_age_seconds":168591,"freshness":"FRESH","line1":"1 58946U 24027R   26263.35116489  .00003537  00000+0  12575-3 0  9993","line2":"2 58946  53.1583 123.8968 0001247  93.9020 266.2124 15.31680460147158","mean_motion":15.3168046,"eccentricity":0.0001247,"inclination_deg":53.1583,"raan_deg":123.8968,"arg_perigee_deg":93.902,"mean_anomaly_deg":266.2124,"bstar":0.00012575,"rev_number":14715,"period_min":94.014387308956,"perigee_km":469.94418134323,"apogee_km":471.65230579297,"semimajor_km":6848.9352435681,"source":"CELESTRAK","updated_at":"2026-09-21T09:00:33.999129Z"}}}